Location: Castillon
(43.0896°N, 0.2156°E)
Time: 14:47:28
(UTC+00:00)

Cosmos 1980 - Pass Details

Date: 16 June 2021
Orbit: 839 x 847 km, 71.0° (Epoch: 31 July)

Event Time Altitude Azimuth Distance (km) Brightness Sun altitude
Exits shadow 22:50:22 41° 131° (SE) 1,215 4.1 -21.6°
Maximum altitude 22:51:14 44° 107° (ESE) 1,163 4.1 -21.7°
Drops below altitude 10° 22:56:35 10° 37° (NE) 2,477 6.6 -21.9°
Sets 22:59:08 0° 31° (NNE) 3,418 7.5 -22.1°
